Location: Bellerive
(46.9237°N, 7.0223°E)
Time: 16:46:02
(UTC+00:00)

Nadezhda 1 Rocket - Pass Details

Date: 09 April 2020
Orbit: 940 x 1006 km, 83.0° (Epoch: 22 May)

Event Time Altitude Azimuth Distance (km) Brightness Sun altitude
Rises 19:16:15 0° 186° (S) 3,720 6.9 -11.1°
Reaches altitude 10° 19:18:46 10° 187° (S) 2,772 6.2 -11.5°
Maximum altitude 19:25:10 89° 282° (WNW) 1,006 4.1 -12.5°
Drops below altitude 10° 19:31:33 10° 9° (N) 2,761 6.6 -13.4°
Sets 19:34:04 0° 9° (N) 3,704 7.3 -13.8°
